TITAN 3C TRANSTAGE DEB, 27721

Orbit data source: Space-Track

TITAN 3C TRANSTAGE DEB, 27721 is space debris in LEO originally from a launch on Fri, 15 Oct 1965 UTC launched from the Air Force Eastern Test Range (AFETR). Debris objects in space refer to the collection of defunct objects orbiting the Earth. Examples of debris include non-operational satellites, rocket bodies, and fragments generated from explosions, collisions, or faulty payload assembly.

Loading next visibility...
Identifier
27721, 1965-082UT
Orbit
LEO
Country
Flag of USUS
Related business
Manufacturer
Unknown
Mission
Spacecraft
Bus & Motor
Unknown
Mass
Unknown
Launch date (UTC)
1965-10-15 (60 years ago)
Launch vehicle
Unknown
Launch site
Air Force Eastern Test Range (AFETR)
Object type
Payload
Rocket body
Debris
Shape & HBR
Unknown shape, 0.1 m
Radar Cross Section
Small (<0.1 m²)

Expand to show TLE details & history
Last TLE update: 8 hours ago

TLE from 8 hours ago
0 TITAN 3C TRANSTAGE DEB
1 27721U 65082UT  25297.63539376  .00003063  00000-0  75465-3 0  9999
2 27721  31.6384 273.4443 0113890 268.1693  90.5892 14.46833032613849
Epoch: 2025-10-24T15:14Z
TLE epoch observation values (Epoch: 2025-10-24T15:14:58.020Z)
Latitude
-0°
Longitude
11.42508°
Altitude
736.378 km
Speed
7.488 km/s
True Right ascension
18h 13m 46s
True Declination
0° 00' 00"
Sunlit
Object was in daylight at epoch
Visualization orbit readout
Latitude
Unknown
Longitude
Unknown
Altitude
Unknown
Speed
Unknown
Apparent Right ascension
Unknown
Apparent Declination
Unknown
Sunlit
N/A
Visualization observer readout
Local Sidereal Time
18:54:35
Azimuth
Unknown
Elevation
Unknown
Doppler factor
Unknown
Orbital elements
Apogee altitude
820.718 km
Perigee altitude
658.589 km
Semi-major axis
7,117.79 km
Eccentricity
0.01139
Inclination
31.6384°
RAAN
273.4443°
Arg. of periapsis
268.1693°
True anomaly
91.89391°
Mean anomaly
90.5892°
Eccentric anomaly
91.24159°
Mean motion
3.61431 °/min
Orbital period
99.6 mins
BSTAR
0.00075465

Documentation

Showing up to 5 results
|